Location: Long Barn
(38.0930°N, 120.1344°W)
Time: 00:20:21
(UTC+00:00)

BlueWalker 3 - Pass Details

Date: 26 January 2026
Orbit: 450 x 461 km, 53.2° (Epoch: 11 February)

Event Time Altitude Azimuth Distance (km) Brightness Sun altitude
Rises 01:58:17 0° 265° (W) 2,451 7.4 -8.7°
Reaches altitude 10° 02:00:51 10° 283° (WNW) 1,580 5.5 -9.1°
Maximum altitude 02:03:30 19° 331° (NNW) 1,121 3.9 -9.6°
Drops below altitude 10° 02:06:09 10° 20° (NNE) 1,582 4.1 -10.1°
Enters shadow 02:07:00 - 28° (NNE) 1,847 4.4 -10.3°
